Theta_e
315 315 315 316 315 317 322 326 326 327 328 323 321 320 322 322 322 323 323 322 322 321 320 320 321 320 320 320 320 321 321 320 321 321 324 327 320 320 321 320 321 319 318 319 323 326 327 328 329 330 329 329 328 327 328 329 330 330 326 324 324 323 322 322 321 321 320 321 321 322 324 326 325 324 324 323 324 324 323 324 324 325 327 328 331 332 333 334 334 332 332 334 334 333 333 331 328
314 314 315 317 318 321 324 323 323 324 324 321 320 320 321 321 322 323 323 321 322 320 320 320 321 320 320 320 320 321 321 321 321 321 324 323 320 322 321 321 321 320 319 319 321 324 326 328 329 329 330 330 328 327 327 328 329 329 327 325 324 323 322 322 321 321 321 322 322 324 326 326 325 326 327 328 328 328 326 327 326 327 329 329 330 332 334 334 332 330 331 334 334 334 334 332 331
314 314 317 322 323 323 324 323 325 323 321 318 318 321 321 321 323 322 321 321 321 320 320 321 321 321 320 320 321 322 322 322 321 321 324 323 323 323 322 322 321 320 320 319 319 320 324 326 327 328 330 330 329 328 328 328 329 328 327 326 326 326 324 322 322 322 323 323 324 326 326 327 328 330 330 331 332 330 328 329 328 327 330 331 331 332 333 332 328 327 331 333 333 333 334 334 333
313 313 318 325 324 324 326 326 327 323 319 318 317 321 321 321 322 321 321 321 321 320 320 321 321 321 321 321 321 321 321 321 321 321 325 326 322 321 321 321 321 321 320 320 319 318 319 323 326 327 328 329 329 328 328 329 329 328 328 328 328 328 326 323 323 323 323 324 325 326 328 330 331 332 332 332 332 330 328 328 329 329 331 332 331 332 331 329 324 324 329 332 333 333 333 334 334
314 314 316 323 325 325 327 325 324 321 319 320 318 320 322 321 321 321 321 321 321 321 320 321 321 322 321 321 320 320 321 321 321 320 322 322 319 318 319 321 322 321 320 320 319 317 316 319 323 325 326 327 328 328 328 329 329 329 330 330 330 330 329 326 324 323 324 325 325 326 329 331 332 333 333 333 331 330 328 328 330 330 331 332 331 331 329 326 324 323 325 327 330 332 333 333 333
319 321 317 320 324 324 324 322 321 321 321 322 320 320 321 319 320 320 321 321 322 321 320 320 321 321 321 321 320 320 321 320 320 320 320 318 317 317 318 320 322 321 321 320 320 318 316 317 320 323 324 325 326 327 328 328 329 330 331 332 332 332 332 329 326 325 326 325 325 328 331 332 333 333 334 332 330 329 328 329 329 330 331 331 331 329 326 324 322 320 321 321 324 328 329 329 329
323 327 322 320 323 321 321 322 322 323 322 323 321 320 320 319 320 321 321 322 321 321 320 320 320 320 320 321 320 320 320 319 318 319 318 317 317 316 316 318 321 322 321 320 320 319 317 316 318 320 321 322 323 325 326 327 328 329 330 331 332 333 333 332 330 328 327 325 326 329 331 333 334 334 334 331 328 327 327 328 329 329 329 329 329 328 326 323 319 317 316 316 318 320 320 319 319
322 325 322 322 324 323 323 323 323 323 322 322 320 320 319 320 320 321 321 321 322 321 321 320 320 320 321 321 321 321 320 319 318 317 317 317 317 316 316 317 320 321 321 321 320 319 318 317 317 318 318 319 320 322 324 326 327 327 328 329 331 332 333 333 331 329 326 325 327 331 331 333 334 334 334 332 329 327 326 328 328 329 329 328 328 327 327 324 319 315 313 312 313 314 313 313 312
321 322 321 321 324 325 325 325 324 323 322 322 320 320 320 320 321 321 321 321 322 322 321 321 320 320 321 320 320 322 321 319 317 317 317 317 317 316 316 316 318 320 321 321 320 320 319 318 317 316 316 316 317 319 322 324 325 325 326 327 328 330 332 332 330 327 325 325 327 331 333 333 334 334 333 332 330 328 327 327 328 328 328 328 328 328 326 323 319 315 312 311 311 311 311 310 309
322 321 321 323 325 323 323 324 323 323 323 322 320 320 320 320 320 321 321 321 321 321 321 321 320 320 320 320 320 322 321 319 318 317 317 317 317 316 316 316 317 319 320 321 321 321 320 319 317 316 315 315 316 316 318 321 322 323 324 325 325 327 329 330 328 326 325 325 327 331 334 333 334 333 331 331 329 328 327 324 325 325 325 325 325 325 321 317 315 313 311 310 310 309 308 306 305
324 322 320 323 324 321 322 322 323 323 322 321 321 320 320 321 320 320 321 321 321 321 321 320 320 320 320 320 321 323 321 319 319 317 317 316 316 316 316 316 316 317 319 321 321 321 321 320 318 316 315 314 315 315 316 317 319 319 321 322 322 323 324 326 325 323 325 326 328 332 334 334 333 333 331 329 329 328 324 320 320 320 321 321 317 316 313 311 311 310 309 308 307 305 304 303 303
326 325 322 323 323 322 322 321 322 323 323 321 320 320 320 320 320 320 321 321 321 321 321 320 320 320 320 320 321 323 322 320 319 317 317 316 317 316 316 316 316 317 318 320 321 321 321 321 319 317 316 315 315 315 316 316 317 317 318 319 318 318 320 322 320 320 325 327 330 331 333 335 334 332 329 328 327 324 319 316 314 313 314 315 312 310 310 309 309 308 306 305 304 303 303 303 303
324 325 324 325 323 324 324 322 322 323 323 321 320 320 319 320 320 320 320 320 320 320 320 320 320 320 319 320 320 321 321 320 319 317 317 317 316 316 316 316 316 317 317 318 319 320 320 321 320 319 317 315 315 315 316 316 317 317 317 316 315 316 318 318 317 321 327 328 329 331 332 333 333 331 327 326 324 318 314 312 310 309 310 311 309 308 308 307 306 305 304 303 303 303 303 303 304
323 323 324 325 324 323 323 323 323 323 322 320 319 319 318 319 319 320 319 318 319 319 320 319 319 318 318 318 319 320 320 320 319 318 317 317 317 316 316 316 316 316 317 317 318 319 319 320 321 320 318 316 315 315 316 316 317 318 317 316 315 315 316 316 319 325 329 330 330 330 331 331 330 329 325 323 319 315 313 310 308 309 309 308 307 307 305 305 304 303 303 303 303 303 303 304 306
321 322 324 323 324 323 323 325 324 322 322 320 319 318 317 318 319 319 318 318 318 319 318 318 318 318 318 318 320 322 320 319 319 318 318 317 317 316 316 316 316 316 316 317 317 317 318 319 320 320 320 318 317 315 315 316 316 317 317 317 316 315 315 314 320 326 327 329 330 329 329 328 326 324 320 318 315 313 311 309 308 307 306 306 305 305 304 304 303 303 303 303 303 303 305 306 306
319 321 325 324 324 323 323 325 324 322 322 320 319 318 318 318 318 318 319 318 318 318 317 318 318 318 318 317 318 320 319 318 318 318 318 317 316 316 316 316 316 316 316 316 316 316 317 318 318 319 320 320 318 317 315 315 315 316 316 317 317 316 315 314 319 324 324 326 328 327 325 323 320 317 315 313 312 312 310 308 307 306 305 304 304 304 304 304 304 304 303 303 303 305 306 306 306
320 321 324 324 324 323 322 324 324 321 320 320 319 319 318 318 319 318 319 318 318 317 317 318 318 318 318 317 317 318 317 317 317 317 317 316 316 316 316 316 315 316 315 316 316 316 316 316 317 317 318 319 319 318 316 315 315 315 315 316 317 316 316 315 317 320 321 323 324 323 320 318 316 314 313 312 311 311 309 308 306 304 304 303 304 304 304 304 304 304 304 304 305 306 306 306 306
320 323 323 322 323 322 322 322 321 320 320 319 319 319 318 318 318 318 318 318 318 317 318 318 318 318 318 318 318 318 318 318 317 317 317 316 316 316 316 315 315 315 315 315 315 316 316 316 316 316 316 317 318 318 317 316 315 315 314 314 315 316 316 316 316 316 317 318 319 318 316 315 314 313 313 312 311 310 309 307 306 304 303 304 304 304 304 304 304 304 304 304 306 306 306 306 305
321 323 323 323 323 323 321 320 320 320 320 318 318 318 318 317 318 318 317 317 317 317 317 317 317 318 318 319 319 319 319 319 318 318 317 317 316 316 315 315 315 315 315 315 315 315 315 316 316 316 316 316 317 317 317 317 316 315 315 314 314 314 315 316 316 315 315 315 315 315 315 315 314 313 312 311 310 309 308 307 305 304 303 304 304 304 304 304 304 304 304 305 306 306 305 305 305
321 322 322 322 322 321 321 320 320 320 320 319 319 318 317 317 317 317 317 317 317 317 317 317 317 318 318 318 318 319 319 319 319 318 318 317 317 316 315 315 315 315 315 315 316 315 315 315 316 316 316 317 317 317 317 317 316 316 315 315 314 314 314 314 315 314 314 314 314 314 315 314 314 313 312 310 310 308 308 307 305 304 303 304 304 304 304 304 304 304 305 306 306 305 305 305 305
321 321 322 321 321 320 319 319 319 320 319 319 318 318 317 317 317 317 317 318 317 317 317 317 317 317 317 317 317 317 318 318 318 318 318 318 317 316 315 315 315 315 315 316 316 315 315 315 315 316 316 317 317 317 318 317 317 317 316 315 315 314 314 313 314 313 313 313 313 313 314 314 314 313 312 310 309 308 307 307 305 304 304 304 304 304 304 304 304 304 305 306 306 305 305 305 305
320 320 320 320 320 319 319 318 319 320 319 319 318 318 317 317 317 317 318 318 317 317 317 317 317 317 317 316 317 316 317 317 317 318 318 317 316 315 315 315 315 315 316 316 316 315 315 315 315 315 315 316 317 317 318 318 318 318 317 316 316 315 314 313 313 313 313 313 313 312 313 313 313 313 311 310 309 308 308 307 305 304 304 304 304 304 305 305 304 305 306 306 305 305 305 305 304
320 320 319 319 319 318 318 318 319 319 318 318 318 318 317 317 317 317 317 317 317 317 317 317 317 317 317 317 317 317 317 316 317 317 317 317 316 315 314 314 315 315 316 316 315 315 314 315 315 315 315 316 316 317 317 318 318 319 318 317 317 316 315 314 313 313 313 313 312 313 313 313 313 313 311 310 309 309 308 307 305 304 304 304 304 304 305 305 304 305 306 306 305 305 305 304 304
319 320 319 319 318 317 317 318 318 318 318 318 318 318 317 316 316 316 317 317 317 317 317 317 317 317 317 318 317 317 317 317 317 317 317 317 316 315 314 314 314 315 316 316 315 314 314 314 314 314 314 314 315 316 317 318 318 318 319 318 318 318 317 316 314 314 314 313 313 313 313 313 313 313 311 310 309 309 308 307 305 304 304 304 304 304 305 305 305 305 305 305 305 305 304 304 304
318 319 319 318 318 318 317 318 318 318 318 317 318 318 317 317 316 316 316 316 316 316 316 316 316 317 317 318 317 317 317 317 317 316 317 316 316 315 314 314 314 314 315 315 314 314 314 314 314 314 314 314 314 315 316 317 318 318 318 319 318 318 318 318 316 315 315 315 314 313 313 314 313 313 312 311 310 309 308 307 305 304 304 304 304 304 305 305 304 305 305 306 305 305 304 304 303
317 317 317 317 317 317 317 316 316 316 316 316 317 317 317 316 316 316 316 316 316 316 316 317 317 317 317 317 317 316 316 316 317 317 316 316 315 315 315 315 315 315 315 314 314 314 314 314 314 314 314 314 314 314 315 316 317 317 317 318 319 318 318 319 318 318 317 316 315 314 313 313 313 313 313 312 311 309 308 307 306 305 304 305 305 304 305 305 304 304 305 305 305 304 304 304 303
317 316 316 315 315 315 315 315 315 315 315 315 316 317 316 316 316 316 316 316 316 316 316 316 316 317 316 316 316 316 316 316 316 316 316 316 316 315 315 316 315 315 315 314 314 314 314 314 313 313 313 313 314 313 314 315 315 317 317 318 318 319 319 319 320 319 318 317 317 316 314 314 313 313 313 313 312 310 308 307 306 305 304 305 305 304 305 305 304 304 305 305 305 304 304 304 303
316 315 315 315 315 315 315 315 315 315 315 315 315 316 316 316 316 316 316 316 316 316 316 316 316 316 316 316 316 316 316 316 316 316 316 316 316 316 316 316 315 315 315 314 314 314 314 314 313 313 313 313 313 313 313 314 314 315 317 317 318 319 319 319 320 320 320 319 318 317 316 315 313 313 313 313 312 310 308 307 306 305 305 305 305 304 304 304 304 304 305 305 305 304 304 304 303
315 314 314 314 314 314 315 315 315 315 316 316 316 316 316 315 315 316 316 316 316 316 316 317 317 316 316 316 316 316 316 315 316 316 316 316 316 316 316 316 316 315 315 314 314 314 314 314 313 313 313 313 313 313 313 313 314 314 316 316 317 318 319 319 319 320 320 319 319 318 317 316 314 313 313 313 313 311 309 308 307 305 305 305 304 304 304 304 304 304 304 305 304 304 304 304 303
314 314 314 314 314 315 316 316 317 316 316 316 315 315 316 315 315 316 316 317 316 317 316 316 316 316 316 315 316 315 315 316 315 316 316 316 316 316 316 316 316 315 315 314 314 315 314 314 313 313 312 312 312 312 313 313 313 314 315 316 317 318 319 319 319 319 319 319 319 319 318 317 316 314 314 314 313 311 309 308 307 306 305 304 304 304 304 303 303 304 304 304 304 305 304 304 303
314 314 315 315 315 316 316 317 317 316 315 314 315 315 315 315 316 316 316 316 316 316 316 316 316 316 316 315 315 315 315 315 315 315 315 315 316 315 315 315 315 314 314 314 314 315 315 314 313 313 313 312 312 313 313 313 313 314 315 317 317 318 319 319 319 319 319 319 319 319 319 318 317 315 315 314 313 311 310 309 308 307 306 304 304 303 303 303 303 303 304 304 304 304 304 304 303
315 315 316 317 317 316 317 318 317 316 315 313 315 316 315 315 316 316 316 316 316 315 315 315 315 315 315 315 315 315 315 315 315 316 315 315 315 315 314 314 314 313 313 313 313 314 315 314 313 313 313 313 313 313 313 314 314 315 316 317 318 319 320 320 320 320 320 320 320 320 319 319 318 316 315 315 314 312 311 310 309 308 306 305 304 303 303 303 303 303 303 303 303 303 304 304 303
316 316 316 318 318 317 318 320 317 316 315 314 314 316 315 315 316 316 316 315 315 315 315 315 315 315 315 315 316 315 315 316 316 316 315 315 315 314 314 314 313 313 312 312 312 313 314 314 314 314 314 313 313 313 314 315 316 317 317 318 319 320 321 321 321 321 320 321 320 320 320 319 318 317 316 316 315 313 312 311 310 308 307 306 304 303 303 302 302 302 302 302 302 303 303 303 303
318 318 318 318 319 318 318 320 318 316 316 315 314 314 314 315 315 315 315 315 315 314 315 315 315 315 315 315 316 316 316 316 315 315 315 314 314 313 313 313 313 313 312 312 311 312 313 314 314 314 314 312 312 312 313 315 317 317 318 319 320 321 321 321 321 321 321 321 321 320 320 319 319 318 317 316 316 315 313 311 310 309 308 306 305 303 302 302 302 301 302 302 302 302 302 303 303
319 319 319 318 319 318 318 318 318 317 317 317 316 315 315 316 315 315 316 316 315 315 315 315 315 315 315 316 316 316 316 314 313 312 312 312 311 311 311 311 311 311 311 311 311 311 311 312 313 313 311 310 310 311 311 313 316 318 318 320 321 321 321 321 321 321 321 321 320 320 320 319 319 319 318 317 317 315 314 312 311 310 308 307 306 304 302 301 301 301 301 301 301 301 301 302 302
318 318 318 317 317 317 318 318 318 318 318 317 317 317 316 316 316 315 315 315 315 315 315 315 315 315 316 316 316 316 314 312 311 310 310 310 309 309 309 309 309 309 309 309 310 310 309 311 311 310 309 309 309 309 310 310 312 314 316 318 319 320 320 321 321 320 320 320 320 320 320 319 319 319 318 317 317 316 315 313 311 310 309 307 306 305 303 302 301 301 301 301 301 300 300 301 301
317 318 318 317 317 317 317 318 318 317 318 317 318 317 316 316 315 314 314 315 314 314 314 315 315 316 316 317 316 314 312 311 310 309 308 309 308 308 308 308 309 309 309 309 309 309 309 310 311 310 309 308 308 308 308 309 309 310 311 313 315 316 318 319 319 320 320 320 319 319 319 319 319 318 318 317 317 316 315 314 313 311 309 308 307 306 305 303 301 301 301 301 301 300 300 300 301
317 318 318 318 318 317 317 317 318 317 317 317 316 316 315 315 315 314 314 315 315 315 315 315 316 316 316 316 314 312 311 310 310 309 308 308 308 308 309 309 309 309 309 309 309 308 308 308 310 311 310 308 309 308 308 308 308 309 309 310 312 313 315 316 316 317 317 317 317 317 317 317 317 317 317 317 316 316 316 315 313 312 310 309 307 306 305 304 302 301 300 300 300 300 300 300 300
318 318 318 318 318 317 317 317 317 316 316 316 316 315 315 315 315 315 315 315 316 316 316 316 316 314 313 313 311 310 309 309 308 308 307 307 308 308 309 309 309 309 309 310 309 309 309 308 308 309 309 308 309 308 308 308 308 308 309 310 311 312 313 314 313 314 314 313 314 314 314 314 314 314 314 315 315 315 315 315 314 313 311 310 308 307 305 304 303 301 300 300 300 300 299 299 300
318 318 318 318 318 318 318 318 317 316 315 315 316 315 315 315 315 316 316 316 316 317 316 315 314 312 311 310 309 308 307 307 307 307 307 307 307 308 309 309 309 309 310 309 309 309 309 308 308 308 307 308 308 307 307 307 307 307 307 307 308 308 310 310 310 310 310 310 310 310 310 310 310 311 311 312 312 313 314 315 315 315 313 311 309 308 306 305 304 303 301 300 300 299 299 299 299
319 320 319 318 318 318 318 317 316 315 316 316 316 317 318 317 317 317 317 318 317 316 314 313 312 311 310 309 307 307 306 306 306 306 306 307 307 308 308 309 309 310 310 309 309 309 308 308 308 308 307 307 308 307 307 306 306 306 306 306 306 306 307 307 307 307 307 307 307 307 307 307 307 307 308 308 309 309 310 312 313 314 314 314 312 310 308 306 304 303 302 300 300 299 299 299 299
318 320 321 318 317 318 318 318 318 317 317 317 318 320 321 320 319 319 318 318 316 313 312 311 310 309 308 307 306 305 305 305 305 305 306 307 308 308 309 309 310 310 310 310 309 309 309 309 308 308 308 308 308 308 308 308 307 307 306 306 306 306 306 306 307 307 307 307 306 306 306 306 306 306 306 306 306 307 307 308 310 311 313 314 314 313 311 309 306 304 302 301 300 300 299 299 299
318 320 320 319 318 319 320 319 319 319 318 316 316 319 319 319 318 318 318 317 313 311 311 310 309 308 307 306 305 304 304 304 304 305 306 307 308 309 310 310 310 310 310 310 310 310 310 310 310 309 309 308 308 308 308 309 308 308 307 306 306 305 305 306 307 307 307 306 306 305 305 305 305 305 305 305 305 306 306 306 307 308 310 312 313 313 313 312 310 307 304 302 301 300 298 298 298
319 319 318 318 318 318 318 317 318 318 317 316 316 317 318 318 317 318 318 316 312 311 310 309 308 307 305 305 304 303 303 303 304 304 305 306 307 308 309 309 309 310 310 310 310 310 310 310 310 310 310 309 309 308 309 309 309 309 308 307 306 306 305 305 305 306 306 306 305 305 304 304 305 304 304 304 305 305 305 305 305 305 307 308 310 311 312 312 312 310 306 303 301 299 298 298 298
320 318 316 316 315 315 316 316 317 317 316 318 318 318 320 320 319 318 318 315 312 311 310 309 307 306 305 304 303 302 302 302 303 304 305 305 305 306 307 308 309 309 309 309 309 309 310 309 309 310 310 309 309 309 309 309 309 309 309 308 307 306 305 305 305 305 305 305 305 304 304 304 304 304 304 304 304 304 304 304 304 304 304 305 307 308 309 310 311 310 309 306 303 300 299 298 297
317 316 316 315 316 317 316 316 316 316 317 318 319 319 320 323 322 320 319 315 313 312 309 308 306 305 304 303 302 301 301 301 302 302 304 305 305 305 305 307 308 308 308 308 309 309 309 308 308 309 309 309 309 308 308 308 309 309 309 308 307 307 306 305 305 304 304 304 304 304 304 303 303 303 303 303 303 303 303 303 303 303 303 303 303 305 306 307 308 309 309 308 306 303 300 298 297
314 315 316 316 318 318 317 317 316 317 320 320 319 319 319 324 326 319 317 315 312 311 309 307 306 304 303 302 301 301 302 302 302 302 303 303 304 305 305 306 306 307 307 307 308 308 307 307 307 307 307 307 307 308 308 308 308 308 308 308 308 307 307 306 305 305 304 303 303 303 303 303 302 302 302 302 302 302 302 303 302 302 302 302 302 302 303 304 305 306 307 307 306 304 301 299 298
313 314 314 316 320 318 316 317 316 318 323 320 319 320 319 324 325 317 315 315 312 311 309 307 305 304 303 301 300 300 301 303 303 304 304 304 305 305 306 306 306 306 306 306 306 306 306 306 306 306 306 306 306 306 306 307 307 307 307 307 307 307 306 306 306 305 304 304 303 303 303 302 302 302 302 301 301 301 302 302 302 302 302 302 301 301 301 301 302 303 304 304 304 303 301 299 298
313 314 313 317 321 321 320 321 320 321 321 317 318 322 322 323 321 317 316 314 312 311 308 306 304 303 302 300 299 299 299 301 303 303 304 304 304 305 305 305 304 304 304 304 304 304 305 304 305 305 305 304 305 305 305 305 305 306 306 306 306 306 305 305 305 305 305 304 304 303 302 302 302 302 301 301 301 301 301 301 301 301 302 302 302 301 301 300 300 301 301 302 302 301 300 299 298
313 315 317 319 321 322 323 323 323 324 321 318 319 322 323 323 320 318 314 310 308 308 306 305 303 302 301 300 299 298 298 299 301 302 303 303 303 303 303 303 303 303 302 303 303 303 303 303 303 303 303 303 303 304 304 304 304 304 304 304 304 304 304 304 304 304 304 304 304 303 302 302 301 301 301 301 300 300 300 300 301 300 301 301 301 301 301 301 300 300 300 300 300 300 300 299 298
313 316 320 321 321 321 321 322 324 325 325 323 321 322 324 323 318 313 309 306 305 305 304 303 302 301 300 299 298 298 298 299 300 300 301 301 301 301 301 301 301 301 300 301 301 301 302 302 301 301 301 302 302 302 303 303 303 303 303 304 304 303 303 303 303 303 303 303 304 304 304 303 302 301 301 300 300 300 300 300 300 300 300 300 300 301 301 301 300 300 299 299 299 299 299 299 298
316 317 320 321 322 321 320 322 323 323 324 323 321 323 323 319 313 308 306 305 304 303 303 302 301 300 299 298 298 297 297 297 298 298 298 298 299 299 299 299 299 299 299 299 299 299 299 300 300 300 300 300 300 301 301 302 302 303 303 303 303 303 302 302 301 301 301 302 302 303 303 303 303 302 302 301 300 300 299 300 300 300 301 300 300 300 300 300 300 300 299 299 299 299 298 298 298
317 317 320 320 320 321 321 322 322 322 322 320 320 322 320 316 314 308 306 306 304 303 302 301 300 300 298 298 297 296 296 296 297 298 298 298 298 298 298 297 297 297 297 297 296 296 296 297 297 297 298 298 298 299 299 299 300 300 301 301 301 301 301 301 301 300 300 300 300 300 301 302 302 302 302 301 301 300 300 299 299 300 300 300 300 300 299 299 299 299 299 299 299 299 298 298 298
317 319 319 317 318 320 319 320 321 322 321 319 318 320 317 317 316 309 306 306 304 303 302 300 300 298 297 297 296 296 297 298 299 299 298 298 298 297 296 296 295 295 295 295 294 293 293 293 293 294 294 295 295 295 296 296 297 297 297 298 298 299 299 299 299 299 299 299 299 299 299 299 300 300 301 301 301 301 301 300 300 300 300 300 300 300 299 299 299 299 299 298 298 298 298 298 298
315 316 315 316 319 321 319 318 319 320 319 318 318 318 317 317 316 311 308 306 304 302 301 300 299 298 297 296 297 298 298 299 298 298 297 297 296 296 295 295 294 294 293 293 292 292 291 291 291 291 291 291 291 292 292 293 294 294 294 294 295 295 296 296 297 297 298 298 298 298 298 298 298 298 299 299 300 300 301 301 301 301 300 300 300 300 299 299 298 298 299 299 298 298 297 297 297
312 312 314 316 317 318 318 318 319 319 318 318 318 317 317 316 313 311 309 306 303 302 301 300 298 298 297 297 298 298 298 297 297 296 296 295 294 294 294 294 293 293 292 292 291 291 290 290 290 290 290 290 290 290 290 290 290 291 291 291 292 292 292 293 293 294 295 295 296 297 297 297 297 297 297 297 298 298 299 299 300 300 300 300 300 300 299 299 298 298 298 298 298 298 298 297 297
315 314 314 315 316 319 319 318 318 318 317 318 317 317 318 314 308 307 307 305 304 302 301 300 298 297 297 297 298 298 297 297 296 295 294 294 294 293 293 292 292 292 291 290 290 289 289 289 289 289 290 290 290 290 289 289 289 289 289 290 290 290 290 290 291 291 291 292 292 293 294 294 295 295 295 295 295 296 297 297 298 298 299 300 300 300 300 299 298 298 297 297 297 297 297 298 297
317 316 316 316 317 318 318 317 317 317 317 317 316 317 318 312 305 305 304 303 303 301 300 299 297 297 297 297 298 297 297 296 295 294 294 293 293 292 291 291 290 290 289 289 289 289 288 289 289 289 289 289 289 289 289 289 289 289 289 289 289 289 289 289 289 289 289 290 290 290 291 291 292 292 293 293 293 293 293 294 295 296 297 298 298 299 299 299 299 298 297 297 296 296 296 297 297
Wind_Speed
9 9 8 7 8 9 9 5 4 2 2 4 4 1 2 2 0 2 5 5 3 4 7 4 4 4 5 4 4 7 7 5 3 3 1 2 1 4 2 1 3 4 7 8 12 15 17 18 17 17 16 17 17 16 16 16 16 15 14 14 14 14 12 11 10 9 8 7 6 5 3 2 2 2 3 3 3 3 3 3 4 4 3 3 4 4 4 4 4 3 3 3 1 1 1 1 1
7 7 5 6 7 5 6 4 2 3 2 3 2 3 2 1 1 4 6 5 4 3 6 5 3 4 4 6 6 7 6 5 3 4 2 2 4 3 2 3 3 4 7 6 10 15 17 19 18 18 17 18 18 17 17 16 16 16 15 15 15 14 13 12 10 9 8 7 6 5 4 3 3 3 3 3 3 4 3 4 4 4 4 4 4 4 4 3 4 4 3 4 3 3 3 2 2
5 6 3 4 7 5 6 3 2 4 4 2 3 3 0 1 4 5 5 6 4 3 5 4 3 3 3 5 4 4 3 2 1 4 3 2 2 2 2 3 5 6 7 6 8 14 17 19 18 18 18 18 18 17 17 16 16 16 16 16 16 15 13 12 10 9 8 7 7 5 4 4 3 3 3 3 4 4 4 5 4 4 4 4 4 4 4 4 5 5 4 5 4 4 5 5 4
4 3 3 1 6 5 4 2 2 3 5 2 2 2 2 2 4 5 6 6 1 2 2 3 2 1 2 4 4 4 3 4 1 2 2 1 2 3 3 4 7 8 9 7 7 13 16 17 19 18 19 18 18 18 18 17 17 17 17 16 16 15 13 12 11 9 8 7 7 6 5 5 4 4 4 5 6 5 4 5 5 5 5 4 5 5 5 6 7 6 6 6 5 5 6 6 6
4 3 2 0 4 3 1 1 2 3 3 2 2 2 4 3 4 5 5 3 2 1 1 2 1 1 3 5 4 3 3 3 1 3 2 4 5 4 3 4 8 9 10 9 8 11 14 16 18 18 19 19 19 19 18 18 18 18 17 17 16 16 14 13 11 10 9 9 8 7 7 7 7 7 7 8 8 6 5 6 7 6 6 5 6 7 8 9 9 9 8 8 7 6 6 7 8
5 5 3 2 4 4 2 2 3 4 2 2 2 3 5 4 6 5 6 2 3 0 2 2 3 3 3 4 4 3 2 2 4 4 5 7 6 4 3 4 8 10 10 11 10 11 14 15 17 19 19 19 20 19 19 19 19 19 18 18 17 16 16 14 12 11 11 10 9 9 9 8 8 8 9 11 10 8 6 7 8 8 8 8 8 9 10 11 12 11 10 9 8 8 8 9 10
3 3 2 2 3 2 2 3 4 4 1 2 2 4 5 5 7 6 6 3 3 1 1 2 3 4 4 3 5 5 2 3 4 4 5 6 6 5 4 6 8 11 11 12 12 12 13 15 17 18 19 20 20 20 20 20 20 20 19 18 17 17 17 15 14 12 12 12 11 11 10 10 10 11 12 13 11 9 7 8 10 10 10 11 10 9 10 12 13 13 11 10 9 10 11 11 12
4 3 3 2 1 2 2 4 5 3 1 2 2 1 3 5 6 4 4 3 1 2 3 2 2 2 3 2 4 6 3 2 3 2 4 4 5 5 5 6 8 11 11 13 15 13 14 15 17 18 19 20 20 21 21 21 21 21 20 19 18 18 18 17 16 15 14 14 13 13 12 12 12 13 15 14 12 10 9 9 11 12 12 13 13 12 12 12 13 14 12 10 10 11 11 11 11
4 5 3 2 2 2 3 5 5 2 1 3 3 1 2 3 3 1 3 5 3 2 2 4 3 2 4 6 5 5 5 1 2 2 3 4 4 4 5 6 8 11 11 14 17 16 14 14 16 18 19 20 21 21 21 21 21 21 21 20 19 19 19 19 18 17 16 15 15 14 13 13 13 15 17 15 14 13 12 12 13 14 14 15 15 15 15 15 14 14 12 10 10 10 10 9 9
5 5 2 2 2 3 4 4 1 0 0 3 1 1 4 5 4 2 3 5 3 2 2 3 4 7 7 9 6 4 4 2 3 3 2 4 5 5 4 5 8 11 12 15 18 17 16 15 16 18 19 20 21 21 21 22 21 21 21 21 21 20 20 20 19 18 17 16 16 15 14 15 15 16 17 16 15 14 15 15 15 16 16 17 17 17 16 15 14 13 11 9 9 8 7 7 6
5 5 2 2 2 4 4 3 4 3 3 2 2 6 8 5 3 4 4 5 3 1 3 3 3 8 9 8 9 9 8 7 6 4 3 6 7 6 5 5 8 10 12 14 18 17 17 17 17 18 19 20 21 21 21 21 21 21 21 21 21 20 21 21 20 19 17 17 16 16 16 16 17 17 18 17 16 16 17 18 17 17 18 18 16 15 14 13 13 11 9 8 7 6 4 4 4
3 3 1 2 3 4 4 5 5 5 6 5 3 10 8 4 0 4 4 4 5 4 6 6 2 2 4 6 8 7 9 8 7 6 6 7 8 8 6 6 7 9 11 14 17 17 17 18 18 19 20 21 22 22 22 21 21 20 20 20 20 20 20 20 19 19 18 18 17 17 17 17 17 18 18 18 18 18 18 17 16 16 16 16 14 12 12 11 10 8 7 7 5 4 3 3 3
4 5 2 2 4 4 5 4 5 5 5 1 5 6 4 2 1 4 6 7 9 8 2 4 1 4 3 8 9 7 10 9 7 7 7 9 11 9 8 7 7 9 11 13 16 17 17 18 19 19 20 22 23 23 23 22 22 21 20 19 19 19 19 18 19 19 18 18 19 19 19 19 19 20 19 18 19 18 17 14 13 13 13 12 11 10 10 9 8 7 7 6 4 4 4 4 4
4 7 3 3 4 5 5 4 4 4 4 2 7 6 4 1 2 4 5 7 9 3 3 2 3 4 5 10 7 7 10 8 7 9 10 12 13 11 9 9 8 9 12 13 15 17 18 18 19 20 21 22 24 24 24 23 23 22 21 20 19 19 18 18 20 21 20 20 20 20 21 21 21 21 20 19 20 18 15 12 11 11 10 10 9 9 8 7 7 7 6 5 5 4 4 4 4
5 7 3 2 4 5 4 4 3 3 3 2 5 5 3 3 4 3 5 5 6 4 8 9 5 2 4 7 3 3 7 8 9 13 14 16 16 14 12 12 10 11 12 13 14 17 19 19 20 21 22 23 24 24 24 25 24 24 23 22 21 20 18 19 21 22 21 22 22 22 22 22 22 22 21 21 20 17 14 11 10 10 10 9 9 8 7 7 7 7 7 6 5 5 4 4 4
4 4 2 2 4 5 3 3 1 1 2 3 4 3 2 4 4 4 6 6 10 15 15 9 8 9 11 15 14 14 14 15 17 19 20 20 19 17 15 15 14 13 14 14 15 17 19 21 21 21 22 23 24 25 25 25 25 25 24 23 23 22 20 20 23 23 23 23 24 24 23 23 23 22 22 20 19 16 13 11 10 11 11 10 9 8 8 8 8 8 7 6 6 6 5 5 4
3 2 1 2 4 5 3 2 0 1 4 2 3 2 2 4 3 5 8 9 13 19 19 13 14 17 20 24 21 20 21 21 22 22 23 22 21 20 18 18 17 16 16 16 16 17 20 21 22 22 22 23 24 25 26 26 26 26 26 25 25 24 22 22 23 24 25 25 26 25 24 23 23 23 22 20 18 16 15 13 12 12 12 11 11 10 10 10 10 9 9 8 7 7 6 6 5
2 1 3 4 5 5 4 5 5 5 5 5 5 7 5 5 4 4 5 9 13 17 21 19 17 19 23 25 22 22 21 19 19 19 20 21 21 22 20 19 19 19 18 18 18 18 20 22 23 23 23 23 24 25 25 26 26 27 27 27 26 26 25 24 24 25 26 26 26 26 25 24 23 22 22 20 19 17 16 15 13 13 13 13 13 12 12 12 11 11 10 9 9 8 7 6 5
5 2 3 4 4 6 9 9 9 6 6 9 11 12 10 8 9 7 5 9 11 13 19 20 18 19 21 22 22 25 22 18 17 18 19 21 23 23 23 22 21 21 20 19 19 19 20 22 23 24 24 24 25 25 25 26 26 27 28 28 28 28 27 26 26 26 26 27 26 26 25 24 23 22 21 20 20 19 18 16 15 14 14 15 14 14 14 14 13 12 12 11 10 9 8 7 7
8 6 3 5 5 8 11 13 13 11 10 10 10 11 11 13 15 11 8 10 9 11 17 18 18 19 18 18 18 19 19 18 19 20 21 23 24 25 24 24 23 22 21 20 18 20 22 22 23 24 25 26 26 26 26 26 26 26 27 28 29 29 29 29 28 28 28 27 27 26 25 24 23 22 22 22 21 20 18 17 16 16 17 17 16 16 16 15 14 14 13 12 12 11 10 9 8
7 7 4 6 7 8 12 17 17 12 9 8 10 12 12 15 16 12 10 8 5 12 20 18 20 22 20 21 20 17 17 17 20 23 24 25 26 25 24 23 22 23 22 21 19 19 21 22 23 23 26 27 28 29 28 28 27 27 27 28 29 30 31 31 30 30 29 29 28 27 26 25 24 24 24 24 23 21 19 18 18 19 19 19 18 18 18 17 16 15 14 13 13 12 11 10 9
5 7 9 11 11 9 13 19 15 9 8 10 11 9 12 15 14 13 10 7 8 16 23 24 27 28 26 26 24 24 23 22 22 25 28 27 26 24 22 21 19 20 22 23 22 20 19 20 22 23 25 28 29 30 30 29 29 29 28 27 28 29 31 32 32 31 31 30 29 27 27 27 26 26 26 25 25 22 20 20 20 21 21 20 19 19 19 18 16 15 15 15 14 13 12 11 10
6 7 12 14 14 12 16 19 14 11 9 10 11 11 17 16 14 17 14 16 20 23 26 29 32 32 30 28 25 26 26 24 24 26 29 27 25 23 21 20 18 17 20 23 23 22 20 19 20 23 25 28 29 30 31 31 31 31 30 29 28 28 29 32 33 33 32 31 31 29 29 28 28 28 28 27 26 24 22 22 22 23 22 21 21 21 20 18 17 17 16 16 15 14 13 11 10
7 6 9 14 18 18 20 20 17 15 13 15 15 14 17 15 13 18 19 23 27 26 28 31 33 32 31 29 26 25 25 25 24 25 26 26 25 23 22 21 19 17 19 22 23 23 22 20 19 21 23 26 29 30 31 32 33 33 32 31 30 28 28 30 32 33 33 33 33 32 31 30 29 29 29 28 27 26 24 24 23 24 24 23 22 22 21 19 18 18 17 17 16 15 13 12 11
9 7 9 14 16 17 18 18 18 17 18 19 14 13 19 19 17 20 25 29 30 28 28 30 29 29 28 28 26 25 25 25 24 24 24 25 23 21 20 19 18 18 19 20 22 23 22 21 20 20 21 24 27 30 32 33 34 34 35 34 33 31 29 29 30 31 32 32 33 33 32 31 30 30 30 28 27 26 26 25 25 25 25 24 22 23 23 20 19 19 19 18 17 16 15 14 13
7 8 10 12 12 15 18 20 22 21 21 18 11 12 19 20 15 17 25 27 24 22 20 22 22 24 23 23 24 23 24 23 23 23 23 23 21 19 19 19 20 20 20 20 21 22 22 22 22 20 20 21 25 28 31 33 34 36 36 36 35 33 32 30 31 32 32 31 32 32 32 32 32 31 31 30 28 27 26 26 26 26 26 25 23 24 24 21 20 20 20 19 18 17 17 16 14
9 11 13 15 15 20 22 22 27 25 23 22 13 10 18 19 9 10 24 23 19 19 18 19 20 20 21 21 23 23 24 24 23 23 23 22 21 21 22 22 23 23 23 23 23 24 22 23 22 20 19 20 22 25 29 31 34 36 36 36 36 36 34 32 33 33 33 33 32 32 32 32 32 32 32 31 29 27 27 27 27 27 26 26 25 25 25 22 21 22 21 19 19 19 19 18 16
10 11 12 16 16 22 24 21 26 22 15 20 14 8 15 15 6 15 27 23 19 22 22 22 21 22 23 23 24 24 24 24 24 24 23 22 21 22 23 23 23 22 23 23 23 25 24 24 24 22 20 20 21 22 25 29 32 34 36 37 37 37 36 34 34 34 34 34 34 33 33 32 33 33 33 33 30 28 28 28 28 28 28 27 26 25 25 24 23 24 22 21 21 21 21 20 18
7 7 7 12 12 16 22 19 24 21 12 13 8 1 8 8 10 22 26 21 20 22 21 20 20 22 24 25 26 25 25 24 23 23 21 20 20 20 21 21 21 21 22 23 22 23 25 25 25 23 22 23 23 22 23 26 29 32 34 36 37 37 37 36 35 35 35 35 35 34 34 33 34 34 35 34 31 28 29 29 29 30 29 28 27 26 26 26 26 26 25 24 24 24 23 21 20
6 5 5 9 8 8 15 16 20 16 7 10 9 1 5 5 13 20 20 17 16 18 17 18 19 23 27 28 28 28 28 26 24 22 20 20 20 19 18 17 18 19 21 22 22 22 22 23 25 24 23 24 25 24 23 24 26 29 33 35 36 37 37 38 37 36 36 36 36 36 35 35 35 36 36 34 31 29 30 31 31 30 30 29 28 27 27 28 28 28 27 25 25 25 24 23 22
6 7 5 5 5 4 10 13 9 4 4 13 9 3 5 5 14 17 14 11 11 15 19 22 25 29 31 29 28 28 26 24 23 21 19 17 15 14 13 13 15 18 19 18 20 20 18 19 20 22 23 24 25 25 25 24 25 27 31 34 35 36 36 37 37 37 37 37 37 37 37 36 36 38 37 34 31 30 32 33 33 31 30 30 29 29 29 29 30 30 28 27 26 26 25 24 24
4 6 4 3 4 4 9 11 5 6 3 9 8 2 6 7 10 12 14 16 18 20 22 28 30 30 32 30 27 25 24 22 18 13 9 7 7 7 9 11 11 12 11 11 14 15 15 16 17 19 20 21 23 23 23 24 24 26 29 31 33 34 35 36 36 36 36 37 37 38 38 38 38 39 38 36 33 32 34 35 34 32 32 32 31 30 30 31 31 31 30 29 28 28 27 27 27
4 5 5 4 6 5 4 7 4 9 4 5 7 3 5 5 7 13 19 24 25 23 24 31 32 28 29 29 26 24 21 15 9 5 2 3 5 7 10 11 10 8 7 8 10 10 12 13 14 16 17 17 18 20 21 22 23 25 26 28 30 32 34 34 34 35 35 36 37 37 38 39 38 39 39 38 37 35 35 36 36 34 34 33 32 32 32 32 32 33 32 30 29 29 29 29 28
3 4 5 6 6 6 3 5 2 7 6 4 7 7 7 7 10 18 22 24 25 23 26 31 27 24 25 28 26 19 9 7 10 6 4 5 8 11 12 13 13 13 11 9 8 8 9 11 12 13 13 12 13 15 17 19 22 23 24 25 27 29 32 32 33 33 34 34 35 36 37 38 38 39 39 39 38 37 37 37 37 36 36 35 34 33 33 33 34 34 33 32 31 31 31 30 29
5 5 5 6 6 7 7 6 6 4 4 6 7 8 8 7 9 15 20 23 23 24 29 28 23 25 27 25 16 10 14 18 16 10 7 6 7 7 7 8 9 10 9 8 7 7 7 8 10 10 9 8 8 10 13 15 19 21 21 22 23 25 28 29 30 31 32 32 33 35 36 37 37 37 38 38 38 37 37 38 39 39 38 37 36 35 35 35 35 35 35 34 33 33 32 31 30
10 10 7 8 8 7 9 8 8 9 10 8 8 9 7 7 7 12 21 25 25 28 28 24 26 27 20 11 14 21 24 23 18 13 10 8 7 6 4 2 1 2 3 5 5 4 3 4 6 7 5 5 5 6 8 10 13 17 19 20 22 23 24 26 27 28 29 29 30 32 33 35 35 35 35 36 36 36 37 38 40 40 41 40 38 37 36 36 36 36 36 35 35 35 33 32 31
11 9 8 9 8 8 8 9 9 8 8 7 6 8 8 8 8 14 24 26 23 23 20 22 26 16 9 16 22 24 25 23 18 16 16 14 14 14 13 11 9 8 7 6 5 4 4 2 2 4 4 2 2 4 4 4 6 9 12 15 18 20 22 24 25 26 27 27 28 29 31 32 33 33 33 33 33 34 35 38 40 42 42 42 40 38 37 35 36 37 37 37 37 37 36 35 34
9 8 8 8 7 8 8 11 11 6 4 4 5 8 8 9 12 17 23 18 14 17 17 17 10 10 18 20 24 24 23 20 17 18 19 18 19 19 19 19 18 17 16 14 11 9 6 5 4 3 5 4 2 2 3 2 2 3 5 7 10 13 17 19 21 23 24 25 27 28 30 31 32 32 32 32 32 32 33 36 39 42 43 43 41 39 38 37 37 37 38 38 39 38 38 37 37
7 7 7 6 5 7 8 10 9 2 1 3 6 8 7 11 15 17 18 12 14 21 11 4 15 23 24 24 25 23 23 21 20 21 21 22 22 23 24 24 24 24 23 22 20 17 13 10 8 5 5 4 3 1 1 2 2 3 3 5 7 8 10 13 15 17 19 20 22 24 26 28 29 30 30 31 31 31 32 33 36 40 42 43 42 41 40 39 38 39 39 40 40 40 39 39 39
5 5 5 6 5 6 6 4 5 4 3 6 9 8 7 11 14 13 15 14 12 5 14 26 27 27 27 27 25 24 24 23 21 22 23 25 26 27 28 28 28 28 28 28 27 25 22 18 15 11 9 6 5 3 2 0 1 2 2 3 6 7 8 11 12 13 15 16 17 18 20 22 23 24 25 26 27 28 29 31 33 37 40 42 42 42 42 41 41 40 40 40 41 41 41 41 41
5 6 6 7 7 8 6 4 6 6 6 6 6 5 5 8 9 6 7 8 2 16 28 27 25 26 26 26 25 24 23 22 22 24 25 27 28 29 29 29 30 31 32 32 31 29 27 25 22 20 17 13 12 10 7 5 4 3 3 2 2 4 6 8 9 11 12 13 14 14 15 16 17 18 19 20 21 22 24 26 29 33 37 40 42 42 43 42 42 42 41 42 42 43 43 42 42
5 5 4 5 5 5 5 7 7 5 4 3 3 3 4 5 6 6 7 4 7 17 21 19 22 24 24 25 23 22 23 23 23 24 26 28 28 29 29 30 32 33 33 32 32 31 30 29 27 25 23 21 19 19 17 14 12 10 8 6 5 4 4 5 7 10 12 12 12 13 12 13 13 14 15 15 16 17 19 21 24 28 33 37 39 41 42 42 42 43 43 43 43 43 43 44 43
5 3 3 4 4 5 6 6 5 1 3 3 1 1 4 5 4 10 12 1 9 12 13 14 19 22 22 23 20 20 21 22 23 25 26 28 28 28 29 30 31 32 32 31 31 31 31 30 30 28 27 25 23 23 23 22 20 17 14 11 8 6 5 5 5 7 11 13 14 15 15 14 13 12 12 13 14 14 15 16 19 23 28 33 36 38 40 41 42 43 43 43 43 43 44 45 45
4 2 4 5 5 4 4 3 2 4 4 5 5 4 6 5 5 13 12 5 10 8 9 10 16 20 20 19 18 19 19 20 23 25 26 28 28 28 29 29 29 29 28 28 29 30 30 30 29 28 28 27 25 24 24 24 24 22 19 16 12 9 7 5 4 5 8 11 13 15 16 15 15 13 12 12 12 12 12 12 14 17 22 27 32 35 37 38 40 41 42 43 43 43 45 46 46
2 0 2 3 2 2 3 3 4 4 3 4 5 6 4 4 5 11 7 8 8 7 8 7 12 17 17 17 17 17 18 19 22 24 26 27 27 27 27 27 26 26 26 26 27 28 28 27 27 26 26 26 26 25 24 24 24 24 23 20 17 14 11 8 7 5 6 10 13 15 16 17 16 15 14 13 12 12 11 11 11 13 16 20 25 30 33 35 37 39 41 43 43 44 45 45 46
2 2 1 2 3 4 3 4 3 3 3 5 6 6 3 4 6 5 2 8 6 5 6 7 12 15 15 15 16 16 18 20 21 23 24 25 25 26 25 25 24 24 24 24 24 25 25 25 24 24 25 25 25 24 24 24 24 23 23 22 20 18 16 13 11 8 6 7 10 13 16 17 18 18 16 14 13 13 12 11 11 12 13 15 19 24 28 31 34 37 39 42 43 44 44 45 47
1 1 2 3 5 4 3 3 1 2 3 5 7 9 7 3 5 1 4 6 9 7 6 7 11 13 14 14 15 17 19 21 21 22 23 24 24 23 22 23 23 23 22 22 23 23 23 23 22 22 23 23 23 23 23 22 22 22 22 22 22 21 20 18 16 14 12 9 8 9 12 14 16 18 19 18 16 14 13 13 12 12 12 13 16 19 23 27 30 33 36 40 42 43 44 44 46
2 0 2 4 4 1 1 0 1 1 3 4 5 3 8 4 3 2 5 6 10 10 9 9 10 12 14 14 14 17 19 21 21 21 21 21 20 20 19 20 20 20 20 21 22 22 21 21 21 21 21 21 21 21 21 21 21 21 21 21 21 21 21 21 20 19 17 16 14 11 11 12 12 14 17 20 20 18 16 14 14 13 13 13 14 15 18 21 25 29 33 37 40 42 43 43 44
3 2 1 1 2 1 0 0 2 3 4 3 3 6 2 5 5 3 3 5 5 7 11 13 14 14 15 14 15 16 18 20 20 20 19 18 18 18 18 18 18 18 19 20 21 20 20 20 19 19 20 20 20 19 19 20 20 21 20 20 21 21 20 20 21 21 20 19 18 16 14 12 11 11 13 16 19 21 19 16 15 15 15 15 14 14 15 17 20 24 28 33 37 40 42 43 44
5 4 4 3 1 2 3 2 3 3 3 4 1 6 1 4 6 5 3 7 9 14 17 17 17 17 16 14 14 16 18 19 19 19 18 18 17 17 17 18 17 17 18 18 19 19 19 18 18 18 18 17 17 17 18 18 19 20 20 20 20 20 20 21 21 21 20 20 19 18 17 15 14 13 12 13 15 19 20 18 15 14 14 15 15 16 16 16 17 20 23 27 32 36 39 41 43
6 4 4 4 2 3 4 3 4 3 2 5 4 3 1 4 1 2 8 11 14 19 20 19 19 17 16 15 14 15 17 18 18 18 17 17 16 16 16 16 15 15 16 16 17 17 16 16 16 16 16 16 16 16 16 17 18 19 19 19 20 20 21 21 21 21 20 20 20 19 19 18 17 15 14 14 14 16 19 19 18 16 15 14 14 15 17 17 17 18 20 23 26 29 34 38 41
3 0 2 1 3 4 3 4 4 2 3 5 4 3 3 2 4 6 10 12 14 17 17 18 17 15 15 15 14 14 15 15 16 16 16 15 14 14 14 13 13 14 14 15 16 15 15 15 14 14 15 15 15 15 15 15 16 16 17 18 18 19 20 20 20 20 20 20 20 20 19 19 18 17 16 15 15 15 17 18 19 18 17 16 16 15 16 16 17 18 20 21 23 24 28 34 37
1 2 1 3 3 3 1 4 2 0 3 4 3 3 4 1 3 6 8 8 9 10 11 14 14 13 14 14 13 12 12 13 14 13 12 12 11 11 11 12 12 13 14 15 15 14 14 13 12 12 12 12 13 13 13 14 14 15 15 15 16 16 17 19 20 20 20 20 19 19 18 18 19 19 18 18 17 16 16 17 19 19 18 18 18 18 18 17 17 18 19 20 21 22 25 29 32
3 2 2 2 3 2 1 2 1 1 5 4 4 6 6 4 2 3 7 7 7 6 7 10 11 12 13 11 11 11 12 11 10 9 9 8 9 9 10 10 11 12 13 13 14 14 13 13 13 13 12 12 12 12 13 14 14 15 15 14 14 14 15 16 17 18 19 19 19 18 18 18 18 18 18 18 19 19 19 19 19 19 19 18 18 18 19 19 20 20 21 21 21 21 23 26 28
3 2 0 2 0 1 1 1 2 4 6 4 4 7 7 4 2 1 6 7 7 6 5 6 7 9 10 9 10 10 9 8 7 7 6 6 6 7 8 9 10 11 11 11 12 12 13 13 14 14 14 14 14 14 14 14 15 15 15 15 14 13 13 13 13 15 16 18 19 19 19 19 18 18 19 19 20 20 21 21 21 21 21 20 19 18 18 18 20 22 23 23 22 22 24 25 26
3 1 1 1 3 3 2 1 2 4 6 5 5 7 6 2 2 2 4 8 8 7 5 4 5 6 7 8 9 8 8 7 6 5 5 5 5 5 6 7 8 9 10 11 11 12 14 14 15 16 16 16 17 18 18 17 17 16 15 14 14 14 14 14 13 13 14 15 16 18 20 20 21 21 21 21 21 22 22 22 22 22 22 21 21 20 19 19 19 20 22 23 24 24 26 27 26
2 1 2 2 1 1 1 2 3 3 5 5 6 7 4 1 3 4 6 8 7 7 6 5 6 8 9 9 9 8 7 6 5 5 4 4 4 5 6 6 7 9 11 12 13 14 15 16 17 17 18 18 19 20 21 21 21 20 19 18 17 16 15 15 15 15 15 15 15 16 17 19 20 22 23 23 22 22 22 23 23 23 23 22 22 21 21 20 20 21 21 22 23 24 26 27 27
3 1 2 3 2 2 3 5 3 3 4 4 6 8 4 1 3 3 6 5 6 8 8 7 9 11 10 9 8 7 6 5 5 4 3 2 3 5 6 7 9 11 12 13 13 14 15 16 17 18 19 20 21 21 22 23 23 23 23 23 22 21 19 18 17 17 17 17 17 17 17 17 18 19 21 23 23 23 23 23 24 24 24 23 23 22 22 21 21 22 22 22 23 23 25 26 27
Wind_Direction
303 307 316 332 341 340 332 318 286 234 208 248 263 49 84 26 291 319 36 69 89 56 19 357 318 310 301 312 311 303 295 271 287 340 149 160 323 333 11 206 289 242 239 238 211 211 206 206 207 205 208 211 213 211 211 206 199 194 192 190 188 189 191 192 192 194 196 198 198 204 213 230 249 251 246 238 221 199 179 164 153 142 137 151 159 167 178 181 205 232 235 227 245 354 3 0 349
304 307 322 346 345 330 312 325 298 271 242 246 0 53 144 183 91 49 40 40 51 23 343 344 313 281 274 287 283 288 297 251 270 9 118 77 347 326 41 213 254 237 250 257 214 214 212 210 208 207 207 211 214 213 213 209 203 198 195 195 195 195 196 196 196 200 202 203 207 213 227 251 253 242 230 217 201 190 182 165 154 156 158 168 171 180 192 199 230 248 243 248 266 288 295 285 277
315 323 4 354 324 281 280 304 248 293 307 313 35 40 15 7 54 57 54 59 43 347 334 336 307 285 260 253 274 272 296 336 0 23 89 84 351 328 356 222 227 231 248 265 218 214 217 214 211 209 208 210 213 214 212 210 206 202 200 201 202 204 204 203 202 205 208 207 215 223 234 248 234 222 213 197 192 186 181 167 157 167 172 179 185 192 211 230 252 265 255 254 265 274 276 271 267
333 340 69 349 296 259 250 260 235 299 302 314 54 69 73 28 37 55 53 65 47 319 331 319 289 273 282 255 310 301 299 25 42 24 84 195 305 306 299 235 223 227 237 250 226 215 218 217 215 213 212 212 213 214 212 209 206 204 204 205 208 210 212 211 209 208 210 211 221 230 229 228 212 210 213 206 202 196 191 183 167 169 178 190 204 207 224 249 267 277 263 253 257 265 267 262 260
17 22 73 51 282 277 280 293 276 268 275 332 53 88 80 56 35 48 20 27 175 318 286 285 274 229 295 274 289 313 359 37 326 321 304 285 297 288 274 239 224 226 232 238 233 217 218 218 217 218 216 215 214 215 213 211 208 207 206 208 211 214 217 217 215 211 211 215 223 224 215 215 211 209 212 214 213 210 211 198 182 179 188 197 217 227 240 261 274 277 267 257 254 252 255 255 257
38 16 352 290 271 296 306 271 270 257 265 27 15 359 35 38 39 31 335 331 142 286 271 244 287 299 285 256 241 254 340 337 313 301 285 302 297 282 265 237 225 226 230 231 234 220 220 220 217 220 220 219 217 216 215 214 213 212 211 211 213 216 220 219 219 217 216 221 221 216 208 209 210 210 217 221 219 221 227 217 205 199 202 208 224 240 255 268 274 275 269 262 258 254 255 255 259
43 339 286 267 265 273 276 261 268 275 354 55 18 349 356 12 29 11 324 352 118 173 183 204 292 313 282 238 234 231 250 306 312 291 288 304 289 286 260 240 229 228 229 227 232 224 223 224 219 221 222 222 220 218 217 217 217 217 217 216 216 217 220 220 222 223 224 222 215 210 206 209 211 213 222 227 226 231 243 237 229 224 222 226 236 251 265 274 276 275 271 267 263 261 262 264 267
42 316 276 279 274 199 233 262 260 261 170 105 74 355 336 1 15 355 320 328 263 226 168 204 277 294 280 261 240 213 201 311 320 309 324 318 298 294 257 244 231 230 231 223 229 227 225 226 222 221 223 224 222 221 219 218 220 220 221 220 218 218 219 221 223 227 225 218 210 208 208 210 214 220 229 233 236 248 259 254 247 243 239 240 246 255 265 274 277 275 273 271 266 263 266 270 274
356 308 300 286 281 244 241 248 244 250 203 84 63 315 354 6 2 346 308 302 288 299 167 175 185 224 309 316 291 216 205 264 316 321 1 355 340 317 268 246 228 232 233 223 227 229 227 228 225 223 223 225 223 222 221 220 221 222 224 224 223 221 221 222 225 227 223 216 208 206 208 212 216 226 234 238 244 255 264 264 259 252 248 245 248 254 262 266 270 273 275 273 265 263 268 274 279
295 260 290 303 280 272 257 252 236 312 72 84 95 307 44 32 5 333 298 303 314 357 125 161 196 235 287 314 299 222 209 280 297 286 350 348 348 335 293 251 230 233 234 226 229 231 229 231 229 225 224 225 225 224 223 222 223 224 225 227 228 227 225 225 225 225 221 215 208 206 209 213 219 227 236 242 246 255 264 266 262 257 253 249 249 254 260 262 264 270 275 271 264 264 270 274 273
281 227 239 319 289 271 283 341 356 336 335 3 96 85 75 61 4 296 260 268 283 250 202 199 206 240 263 286 275 251 244 274 288 272 289 321 331 327 310 268 241 235 236 231 232 235 232 233 233 229 227 226 226 225 225 224 225 225 225 227 230 230 227 226 226 223 219 214 208 208 210 213 220 227 236 243 248 257 266 269 265 259 253 252 253 253 255 257 260 265 268 264 259 262 262 257 254
290 252 221 276 282 284 323 354 328 323 329 315 55 76 81 92 3 285 297 307 299 287 244 215 189 287 265 279 278 254 240 259 277 268 275 304 320 319 309 288 263 244 239 236 235 238 235 234 235 233 231 229 228 227 226 226 227 228 227 229 230 229 226 225 225 220 217 212 209 211 214 216 223 230 237 244 252 261 270 272 269 258 247 248 250 247 247 249 252 254 250 244 236 234 232 232 241
278 311 340 279 290 301 322 325 304 312 315 340 95 85 77 87 275 310 342 332 302 300 283 175 44 0 285 277 281 254 245 261 264 255 273 298 311 311 301 292 279 257 245 241 239 241 239 236 236 236 234 232 229 228 227 226 228 229 230 230 229 227 225 223 218 214 214 213 213 216 218 222 228 235 241 248 257 266 271 270 267 256 242 242 243 241 242 241 240 235 224 212 201 206 216 226 237
283 327 337 284 309 301 295 278 292 316 304 58 105 116 95 131 265 329 327 310 301 327 29 335 329 344 282 277 273 239 244 256 253 254 277 294 304 304 292 286 280 267 255 248 242 242 243 239 237 237 237 235 231 229 227 227 227 229 230 230 230 228 226 220 211 210 212 212 215 218 222 227 232 239 247 254 260 266 269 264 263 259 248 242 241 240 240 231 221 214 206 196 196 206 215 223 231
293 332 327 263 303 292 274 257 295 337 302 60 111 126 92 257 222 267 280 280 291 299 321 309 287 274 273 285 304 289 268 259 263 270 282 291 297 297 288 285 279 269 263 257 246 242 243 242 240 237 237 237 234 232 229 228 228 228 230 230 229 229 226 218 210 211 213 213 216 220 225 231 237 243 251 256 259 263 262 256 258 261 255 247 243 240 232 219 212 208 202 197 203 211 218 222 228
292 324 318 252 284 285 273 258 266 295 303 69 115 135 29 296 209 228 269 261 274 285 295 287 262 262 261 270 277 289 289 279 278 280 284 289 291 291 286 284 279 269 265 260 253 245 242 242 244 242 240 238 235 234 232 230 229 229 230 229 229 229 227 220 213 213 216 217 219 224 229 235 241 247 252 256 257 258 254 246 247 251 250 246 241 234 223 216 212 209 205 202 208 214 218 221 226
292 312 261 262 266 265 278 279 275 326 320 37 140 147 41 314 247 234 263 259 271 288 288 273 267 267 266 274 277 278 283 282 283 284 285 288 288 287 283 281 279 272 266 262 258 252 246 243 244 245 244 242 238 236 234 233 231 230 230 229 228 228 227 224 219 217 218 220 224 228 233 238 243 247 251 254 254 253 248 239 236 240 243 239 234 227 221 217 212 211 209 206 211 214 215 217 223
232 235 221 247 246 259 330 334 326 345 335 336 324 327 332 318 306 268 266 264 270 283 285 281 274 268 271 281 280 273 279 282 284 287 287 288 287 286 285 283 279 275 270 264 259 255 252 248 246 247 247 246 243 240 237 235 234 232 230 228 227 227 227 226 225 224 223 224 226 230 234 239 243 246 249 250 250 248 244 237 232 234 237 235 229 224 222 218 214 213 211 209 212 213 213 216 222
214 236 242 250 251 282 311 312 316 335 323 316 314 319 325 322 319 306 286 278 286 288 284 286 282 276 277 280 274 266 271 276 279 285 284 286 288 288 289 288 284 278 272 267 262 259 256 252 250 249 249 248 245 244 241 239 237 234 232 229 226 226 227 227 228 229 229 229 229 232 235 239 243 246 247 247 246 243 241 237 232 231 233 231 226 222 222 219 216 214 213 211 213 213 213 217 225
215 221 245 249 260 289 298 306 313 317 319 322 314 318 320 308 303 293 278 280 284 275 276 284 283 281 284 291 288 271 269 274 274 277 277 282 287 288 289 290 290 286 281 276 269 261 256 253 252 251 250 248 246 245 243 241 240 238 235 232 229 227 226 226 227 229 231 232 232 234 236 239 243 245 246 245 243 240 239 236 232 230 229 227 223 220 220 219 217 215 214 212 213 214 215 219 227
207 204 227 262 285 300 295 302 307 309 321 323 308 311 307 301 299 285 276 283 265 257 268 277 279 285 293 300 305 292 282 282 279 278 277 279 283 285 287 288 290 291 288 282 273 263 258 255 253 251 250 248 247 244 242 242 241 240 238 235 233 230 228 227 227 229 230 233 234 235 237 239 241 243 244 244 242 238 236 233 231 230 227 225 223 220 220 219 218 217 214 214 214 216 218 222 229
226 239 249 262 277 283 281 290 299 306 310 299 295 298 299 303 297 280 269 262 252 262 273 279 281 286 291 292 294 289 284 281 280 278 278 281 284 286 288 287 284 282 281 279 278 274 265 259 255 252 250 248 248 246 244 242 240 240 242 240 236 233 231 229 229 230 231 233 235 236 238 239 240 241 242 242 241 238 235 231 229 229 227 225 223 222 222 219 217 216 215 215 215 218 222 227 233
226 251 254 263 271 273 281 288 293 301 303 290 285 286 293 295 287 280 267 256 263 270 277 281 283 285 288 288 287 283 280 277 274 272 274 279 284 288 291 289 284 276 273 275 279 280 273 264 257 251 249 248 248 247 245 243 240 239 242 243 241 238 235 232 231 231 233 234 235 236 238 239 240 241 241 240 240 239 234 230 228 229 228 225 223 224 224 220 217 216 216 216 216 219 224 228 235
243 249 261 271 275 275 281 287 287 291 290 280 280 282 281 277 281 286 273 265 271 275 277 278 280 284 286 286 284 281 279 278 274 270 271 275 279 287 289 287 285 276 266 270 278 281 279 273 264 256 250 248 248 247 245 244 243 240 240 242 243 242 238 235 235 234 234 235 236 236 237 239 239 240 242 241 240 238 235 232 230 228 228 227 224 225 227 222 218 218 218 218 219 221 224 228 233
257 259 270 272 273 277 284 289 286 282 280 277 273 269 268 271 281 283 275 275 278 278 279 278 278 279 279 281 282 280 278 277 277 274 273 275 278 281 283 285 286 277 267 272 279 279 280 278 272 263 255 251 248 247 246 245 244 242 241 241 242 243 240 237 238 238 237 236 236 236 236 237 238 239 241 241 241 238 235 234 232 230 230 228 224 225 229 224 220 221 220 221 221 221 224 227 232
258 282 299 298 295 293 293 291 286 279 276 272 257 257 267 275 285 278 274 278 282 281 279 280 282 278 276 277 279 279 278 276 276 276 276 278 279 278 283 288 288 285 282 281 279 278 279 278 275 270 265 258 251 249 248 246 245 245 244 243 242 243 241 238 238 239 239 239 238 237 237 237 238 240 242 242 241 238 236 235 235 233 231 231 226 225 229 226 221 223 224 223 222 221 225 228 232
288 312 313 306 299 291 283 277 275 272 270 265 250 253 267 275 286 274 277 281 280 278 275 278 281 278 276 277 280 281 278 277 277 276 275 274 274 278 285 288 287 290 290 285 281 281 278 275 275 273 270 265 258 253 250 248 246 246 247 245 244 244 244 240 238 238 239 241 242 241 240 238 238 241 242 243 241 238 236 236 237 236 234 234 230 226 230 228 222 226 227 225 224 225 227 229 232
305 332 316 295 290 284 276 268 269 266 263 256 240 247 270 276 264 253 275 289 285 276 273 273 273 274 277 280 283 282 280 281 281 277 274 274 274 279 285 288 290 293 291 288 285 282 276 272 272 269 267 267 264 260 255 250 248 247 247 247 246 245 245 242 239 238 238 241 244 243 242 240 240 242 243 243 241 238 238 238 238 239 237 236 234 230 230 229 226 228 228 225 225 226 228 230 232
316 333 305 286 283 276 271 265 261 259 256 238 202 220 272 262 242 249 269 286 284 275 269 269 270 272 276 280 283 284 283 282 281 279 279 281 282 283 286 290 294 296 294 292 285 277 273 271 268 265 263 263 265 264 261 255 250 248 247 247 248 246 245 243 242 241 241 243 244 244 243 242 242 243 245 244 241 240 241 241 240 240 240 239 238 234 231 230 228 229 229 226 226 228 229 230 232
287 269 261 282 287 271 273 270 255 254 239 186 147 115 253 250 261 266 279 284 286 287 282 281 278 275 276 278 282 284 285 285 283 282 282 286 290 291 293 294 291 289 290 288 282 276 274 272 269 265 261 260 264 264 263 259 253 249 247 246 246 246 245 245 246 245 244 244 244 244 244 244 244 245 246 245 241 241 242 243 242 242 242 242 240 237 232 230 231 232 231 229 228 230 231 231 234
269 262 246 259 277 269 278 278 246 221 145 143 134 254 246 274 276 280 294 293 297 297 291 286 279 277 278 278 282 284 286 289 289 288 287 286 289 294 300 302 292 285 285 282 281 279 276 275 272 267 262 261 262 263 262 261 255 250 246 244 245 245 245 246 247 246 246 245 245 246 246 246 245 246 247 245 243 244 244 245 245 244 243 243 241 239 235 232 233 234 233 231 230 231 232 232 234
258 265 265 224 245 264 276 281 211 163 160 141 131 263 242 249 272 293 307 301 298 294 288 283 277 277 280 283 285 286 288 293 298 302 301 284 267 268 276 281 280 284 290 279 277 285 282 276 273 269 265 262 262 261 260 259 255 249 245 243 243 244 244 244 245 246 246 245 245 246 247 247 247 248 248 248 248 247 247 247 247 246 245 244 242 240 237 234 234 235 235 233 232 233 233 232 233
243 235 266 248 253 263 269 294 205 151 137 172 177 231 247 246 281 290 287 283 282 281 278 275 274 278 283 287 289 290 291 298 319 332 313 234 234 247 253 259 261 265 278 272 266 278 283 278 272 268 265 262 262 261 258 256 252 248 245 242 241 242 243 243 244 245 245 245 245 247 248 247 248 249 250 252 252 250 249 249 249 247 246 245 244 242 240 237 235 236 236 235 233 234 234 234 235
254 235 255 250 263 286 289 315 313 139 141 211 217 224 243 248 260 266 270 276 275 270 268 269 275 284 285 288 294 302 319 30 36 17 335 286 271 271 266 265 265 259 260 261 255 252 261 271 268 265 266 266 263 260 256 251 248 247 245 243 241 240 242 243 244 245 246 246 247 248 249 249 250 250 251 253 254 252 250 249 249 248 247 246 244 243 241 239 237 236 237 236 235 235 236 236 237
275 275 285 287 287 304 298 297 321 314 269 259 252 244 253 265 269 275 280 282 277 269 270 276 287 290 290 296 315 20 63 62 46 30 8 334 310 298 279 262 258 252 244 236 233 233 235 251 259 262 270 272 262 256 253 246 241 241 241 241 240 240 241 244 245 246 247 247 248 249 251 251 252 252 252 254 254 254 252 250 248 247 247 246 245 243 242 240 238 236 236 237 236 236 237 238 238
271 277 284 292 285 291 290 284 294 298 285 276 275 275 283 292 294 290 282 276 270 268 273 282 286 286 297 341 47 71 71 62 52 46 41 36 43 51 68 97 156 188 194 192 195 207 204 236 268 274 275 273 261 255 255 249 242 240 240 240 240 241 242 244 245 246 246 247 248 249 251 253 253 254 254 255 255 254 253 250 247 247 247 246 245 244 243 241 240 238 237 237 237 237 237 237 237
270 277 274 279 278 279 287 287 284 285 285 279 288 296 300 297 289 278 274 272 270 271 273 273 277 294 16 60 74 77 71 65 61 59 58 61 65 69 77 82 85 94 101 112 126 128 128 135 321 316 311 309 282 271 269 261 253 250 250 249 248 249 249 249 249 249 250 250 250 250 252 255 256 256 256 256 256 255 254 251 247 245 246 246 247 247 246 245 243 241 239 238 238 237 237 237 236
283 284 279 278 276 279 281 281 281 283 286 284 295 294 293 291 281 273 274 275 271 269 267 265 279 44 59 68 75 74 69 67 68 66 63 65 69 72 75 77 78 79 82 83 86 91 99 114 98 33 5 21 25 308 306 295 268 259 261 262 261 259 258 258 258 258 259 258 258 259 260 262 263 263 263 261 260 259 256 252 249 247 247 248 248 249 248 246 244 242 239 238 238 238 238 239 238
279 279 282 281 276 283 275 267 275 291 78 301 304 295 291 285 275 273 275 272 266 265 267 56 74 70 63 68 72 67 65 67 68 64 62 63 67 72 73 73 74 75 77 77 78 78 79 87 94 80 51 51 66 63 339 303 269 244 245 255 263 264 261 265 267 268 268 268 267 268 268 270 271 272 271 270 267 264 261 257 254 252 251 250 249 249 248 247 245 243 241 240 239 238 237 238 240
251 256 268 272 270 276 269 276 313 353 342 300 300 295 288 281 273 275 272 262 270 293 78 78 79 76 69 69 69 67 67 66 67 66 65 66 67 70 72 72 72 73 73 72 72 71 72 73 73 69 65 60 59 74 100 333 306 275 262 254 263 267 267 272 277 279 280 281 281 279 278 278 278 278 277 275 273 269 266 262 258 256 254 253 252 251 250 248 247 246 244 242 240 239 237 237 240
250 242 247 261 266 267 272 325 345 345 326 302 308 299 270 269 272 282 268 252 335 67 78 74 73 76 74 71 68 69 71 70 72 72 69 70 70 70 70 70 71 70 69 67 67 66 66 67 65 61 58 54 50 52 56 51 40 24 9 350 300 282 278 285 293 295 291 289 289 288 289 289 288 287 285 282 279 274 270 264 260 258 256 255 254 253 252 251 249 248 247 245 243 242 241 241 241
268 251 258 280 295 303 317 350 2 354 315 301 24 356 266 285 312 310 291 281 53 66 72 65 62 66 68 69 68 71 75 76 75 73 74 74 73 71 70 69 68 67 66 65 64 64 63 63 62 61 60 57 54 51 49 46 43 40 32 26 14 352 339 333 331 327 318 310 305 302 302 300 298 297 294 290 286 280 274 267 262 258 257 256 255 255 254 253 251 250 249 247 246 246 245 243 242
269 266 331 347 6 13 5 6 11 332 267 273 0 347 262 279 295 273 272 299 80 69 68 68 65 63 64 67 69 71 73 78 78 75 75 76 75 73 70 68 65 64 64 63 62 62 60 59 58 58 58 57 57 54 51 48 46 44 40 36 30 17 9 352 337 329 320 315 313 312 314 312 309 306 302 297 292 287 281 273 266 260 257 256 256 256 255 254 253 252 251 250 249 247 245 243 243
253 285 1 13 27 9 348 348 282 247 273 281 252 226 256 269 244 248 247 123 95 82 74 74 73 72 73 73 72 73 72 75 79 77 75 74 73 73 71 69 66 64 63 61 61 60 58 56 54 53 52 52 53 52 50 48 46 45 43 41 36 27 17 357 334 313 308 311 313 315 319 319 317 315 312 307 302 297 291 284 275 266 260 257 256 256 256 256 256 254 252 251 250 248 246 244 245
228 239 12 16 15 301 279 256 252 265 300 285 227 198 242 272 246 248 224 122 103 99 93 79 76 77 80 80 78 78 76 75 77 79 78 76 72 71 71 70 67 65 62 61 61 60 57 55 52 50 49 48 48 47 46 45 44 44 43 43 40 33 26 12 357 340 318 318 321 324 327 328 327 324 322 319 313 308 301 295 286 276 269 262 258 257 257 257 256 255 253 252 250 249 248 246 246
209 230 317 313 255 237 236 240 255 290 281 257 231 192 202 287 269 262 122 117 121 109 103 88 83 82 81 83 83 83 83 80 79 79 80 80 77 73 71 70 68 66 64 63 63 60 56 54 51 50 49 48 46 44 43 42 42 41 40 40 39 36 33 27 17 8 352 331 327 329 329 332 333 331 331 329 324 318 310 304 297 289 282 272 264 261 259 258 256 255 254 254 252 251 250 248 246
174 294 326 313 269 229 208 216 201 309 268 252 248 204 184 279 292 335 71 128 145 132 131 117 99 94 91 89 90 92 92 88 84 82 80 80 78 75 71 69 67 66 65 63 61 58 55 52 49 48 47 45 43 42 40 38 39 40 40 39 38 36 33 29 26 21 14 3 352 339 329 330 330 329 329 330 329 324 316 310 303 297 291 283 276 268 263 261 259 257 255 254 253 252 251 249 248
89 24 343 336 306 231 122 95 113 237 251 273 303 199 176 214 284 55 68 115 145 147 151 141 122 110 102 97 94 93 95 95 92 87 83 80 77 75 71 68 67 65 62 59 56 54 53 52 48 45 44 41 39 38 37 36 37 38 39 39 38 37 34 30 27 24 19 13 7 358 342 333 328 324 323 324 326 325 321 317 312 304 295 288 284 279 273 268 264 260 257 254 253 252 251 250 249
123 158 143 12 315 323 105 222 177 211 238 247 25 51 151 223 275 288 72 77 99 119 130 134 129 121 112 104 98 92 91 93 93 89 84 79 74 71 68 65 63 59 56 55 54 53 52 50 47 44 43 40 37 36 35 35 36 37 38 38 37 37 35 33 30 26 23 17 12 6 356 344 334 325 319 317 318 318 319 321 320 314 305 295 287 282 278 274 270 265 260 256 254 253 252 251 250
166 173 163 168 243 288 268 253 245 245 257 248 47 40 9 228 288 298 90 78 67 86 105 117 119 116 109 103 97 91 87 85 84 83 78 73 69 65 63 61 58 55 53 52 51 50 49 48 46 45 45 42 37 36 35 35 35 36 36 35 35 33 31 31 29 27 24 21 17 12 6 358 350 340 329 318 311 308 311 316 318 316 312 305 295 287 280 275 273 270 265 261 257 255 254 253 252
193 194 158 165 198 239 256 261 262 269 282 271 286 349 232 187 268 26 87 86 80 86 97 104 105 106 105 101 95 90 86 83 80 78 74 71 68 63 61 60 58 57 55 52 51 49 46 45 44 44 45 44 40 38 37 37 37 35 33 32 30 28 26 25 24 22 20 18 16 14 10 6 1 353 343 331 316 305 307 314 317 315 311 306 298 291 285 279 276 273 270 266 262 259 256 255 254
225 38 90 183 213 206 253 270 255 279 307 278 265 261 242 170 110 95 90 86 85 89 95 98 98 102 101 97 92 89 90 90 88 84 79 74 71 67 64 60 59 58 56 54 53 51 50 48 46 44 43 43 41 40 40 40 38 34 31 29 25 22 18 16 15 14 13 12 10 9 7 6 3 358 353 345 333 321 315 317 321 321 317 310 301 294 287 282 278 276 274 271 267 263 260 257 256
60 59 151 242 235 155 220 279 271 201 271 260 240 263 283 311 108 107 99 91 89 88 89 92 94 98 95 90 91 93 95 94 89 84 80 75 73 70 66 62 58 55 53 54 55 56 56 56 56 54 51 48 45 43 42 42 41 36 31 27 21 15 10 7 6 6 7 7 6 5 4 2 359 357 356 352 346 340 333 329 326 325 323 316 308 301 293 287 281 277 275 275 273 270 266 262 260
114 198 218 271 332 62 146 262 298 241 256 254 245 270 279 269 252 127 120 110 98 89 83 85 85 85 84 86 93 98 97 92 88 84 80 74 68 63 60 59 57 55 53 53 56 56 54 53 55 54 52 52 50 46 42 39 38 35 33 29 23 17 11 5 1 359 358 358 358 359 360 358 356 354 352 350 348 347 344 340 336 332 330 325 317 308 300 294 288 283 278 275 274 274 271 267 264
125 183 137 93 322 300 194 192 213 236 256 257 247 264 266 253 275 163 155 138 116 110 97 82 77 81 88 96 104 107 106 104 104 101 94 86 78 69 64 59 56 57 57 57 57 54 50 47 46 45 44 44 43 42 40 39 38 36 32 30 26 21 16 9 2 356 351 348 348 349 350 350 350 348 345 344 343 342 342 340 339 337 335 332 326 319 309 300 293 288 285 280 277 274 272 271 268
83 80 326 141 178 215 208 208 225 231 255 264 253 262 264 256 328 333 138 130 125 126 114 102 109 118 124 127 127 131 133 132 130 123 119 112 101 88 76 68 61 56 52 50 48 43 41 37 34 34 33 31 30 29 30 31 34 36 34 31 27 22 17 11 5 358 352 346 342 340 340 341 342 341 339 339 338 337 336 335 334 333 333 332 330 326 320 311 301 293 290 286 283 278 274 272 270
84 57 269 235 224 258 298 271 242 226 252 265 257 258 254 254 345 20 85 101 113 126 128 137 150 154 159 158 156 160 159 155 157 149 139 126 108 89 76 67 58 51 44 41 37 34 32 27 24 22 19 18 18 17 17 17 17 18 17 18 18 17 13 9 4 358 354 349 344 340 336 335 335 334 334 335 335 334 332 329 328 328 328 327 326 326 323 318 311 304 297 292 288 283 279 276 274
114 91 246 259 287 341 298 266 237 218 239 250 259 261 247 236 316 46 87 90 103 126 139 155 169 173 175 176 178 183 180 171 170 165 151 115 77 63 56 52 49 46 42 37 33 29 24 18 15 12 10 11 10 8 8 7 5 5 3 3 3 3 2 0 358 354 351 348 345 342 338 333 330 328 329 331 332 332 331 329 327 325 324 323 322 321 320 317 314 310 306 300 294 289 284 280 277